This is the latest recevied weather packets stored in our database for station/object KK6MIG-13. If no packets are shown the sender has not sent any weather packets the latest 10 day(s).
| Time | Temp. | Humidity | Pressure | Rain* | Wind** | Luminosity | Snow |
|---|---|---|---|---|---|---|---|
| 1777412148 | 15° C | 13% | 1018.6 hPa | 0 mm | - | 905 W/m² | - |
| 1777412097 | 15° C | 16% | 1018.6 hPa | 0 mm | - | 909 W/m² | - |
| 1777412092 | 15° C | 16% | 1018.5 hPa | 0 mm | - | 904 W/m² | - |
| 1777411968 | 15° C | 16% | 1018.6 hPa | 0 mm | - | 909 W/m² | - |
| 1777411906 | 15° C | 15% | 1018.6 hPa | 0 mm | - | 904 W/m² | - |
| 1777411847 | 15° C | 14% | 1018.6 hPa | 0 mm | - | 909 W/m² | - |
| 1777411795 | 15° C | 15% | 1018.6 hPa | 0 mm | - | 909 W/m² | - |
| 1777411791 | 15° C | 17% | 1018.5 hPa | 0 mm | - | 912 W/m² | - |
| 1777411666 | 15° C | 17% | 1018.6 hPa | 0 mm | - | 916 W/m² | - |
| 1777411606 | 15° C | 16% | 1018.6 hPa | 0 mm | - | 916 W/m² | - |
| 1777411546 | 15° C | 17% | 1018.6 hPa | 0 mm | - | 916 W/m² | - |
| 1777411486 | 15° C | 19% | 1018.7 hPa | 0 mm | - | 921 W/m² | - |
| 1777411426 | 15° C | 15% | 1018.7 hPa | 0 mm | - | 914 W/m² | - |
| 1777411366 | 15° C | 13% | 1018.6 hPa | 0 mm | - | 919 W/m² | - |
| 1777411307 | 15° C | 12% | 1018.6 hPa | 0 mm | - | 921 W/m² | - |
| 1777411247 | 15° C | 10% | 1018.7 hPa | 0 mm | - | 914 W/m² | - |
| 1777411186 | 15° C | 14% | 1018.7 hPa | 0 mm | - | 923 W/m² | - |
| 1777411126 | 15° C | 18% | 1018.6 hPa | 0 mm | - | 921 W/m² | - |
| 1777411075 | 15° C | 14% | 1018.7 hPa | 0 mm | - | 926 W/m² | - |
| 1777411070 | 15° C | 19% | 1018.6 hPa | 0 mm | - | 925 W/m² | - |
| 1777410946 | 15° C | 12% | 1018.7 hPa | 0 mm | - | 926 W/m² | - |
| 1777410880 | 15° C | 13% | 1018.7 hPa | 0 mm | - | 928 W/m² | - |
| 1777410820 | 15° C | 15% | 1018.7 hPa | 0 mm | - | 932 W/m² | - |
| 1777410760 | 15° C | 13% | 1018.7 hPa | 0 mm | - | 928 W/m² | - |
| 1777410700 | 15° C | 14% | 1018.7 hPa | 0 mm | - | 942 W/m² | - |
* Rain latest hour (hover to see other rain measurements)
** Current wind speed in m/s (hover to see current wind gust speed)